Location: Caltech
(34.1382°N, 118.1253°W)
Time: 18:42:57
(UTC-07:00)

PANSAT - Visible Passes

Search period start: 22 April 2018 00:00
Search period end: 02 May 2018 00:00
Orbit: 476 x 483 km, 28.5° (Epoch: 22 April)

Date Brightness Start Highest point End Pass type
(mag) Time Alt. Az. Time Alt. Az. Time Alt. Az.
22 Apr 9.2 21:01:06 10° WSW 21:03:57 20° SSW 21:04:06 20° SSW visible
23 Apr 9.3 20:31:10 10° WSW 20:34:01 20° SSW 20:35:50 15° SSE visible
24 Apr 9.4 20:01:13 10° WSW 20:04:04 20° SSW 20:06:55 10° SSE visible
